Time,TemperatureF,DewpointF,PressureIn,WindDirection,WindDirectionDegrees,WindSpeedMPH,WindSpeedGustMPH,Humidity,HourlyPrecipIn,Conditions,Clouds,dailyrainin,SoftwareType,DateUTC
2013-04-05 00:00:00,36.7,11.6,30.14,West,262,0.0,3.0,35,0.00,CLR,CLR,0.04,WeatherDisplay:10.34,2013-04-05 04:00:00,
2013-04-05 00:01:00,36.7,11.6,30.14,West,262,0.0,3.0,35,0.00,CLR,CLR,0.04,WeatherDisplay:10.34,2013-04-05 04:01:00,
2013-04-05 00:04:00,36.9,11.7,30.14,WSW,241,3.0,5.0,35,0.00,CLR,CLR,0.00,WeatherDisplay:10.34,2013-04-05 04:04:00,
2013-04-05 00:08:00,37.0,11.9,30.14,WSW,245,3.0,3.0,35,0.00,CLR,CLR,0.00,WeatherDisplay:10.34,2013-04-05 04:08:00,
2013-04-05 00:13:00,37.0,11.9,30.14,West,261,0.0,3.0,35,0.00,CLR,CLR,0.00,WeatherDisplay:10.34,2013-04-05 04:13:00,
2013-04-05 00:18:00,36.9,11.7,30.11,SSW,195,4.0,6.0,35,0.00,CLR,CLR,0.00,WeatherDisplay:10.34,2013-04-05 04:18:00,
2013-04-05 00:23:00,36.9,12.4,30.10,SSW,205,0.0,0.0,36,0.00,CLR,CLR,0.00,WeatherDisplay:10.34,2013-04-05 04:23:00,
2013-04-05 00:28:00,36.9,12.4,30.10,SSW,205,0.0,3.0,36,0.00,CLR,CLR,0.00,WeatherDisplay:10.34,2013-04-05 04:28:00,
2013-04-05 00:33:00,36.9,12.4,30.10,SSW,205,0.0,0.0,36,0.00,CLR,CLR,0.00,WeatherDisplay:10.34,2013-04-05 04:33:00,
2013-04-05 00:38:00,36.7,12.8,30.10,West,260,0.0,0.0,37,0.00,CLR,CLR,0.00,WeatherDisplay:10.34,2013-04-05 04:38:00,
2013-04-05 00:43:00,36.5,12.7,30.10,West,260,0.0,0.0,37,0.00,CLR,CLR,0.00,WeatherDisplay:10.34,2013-04-05 04:43:00,
2013-04-05 00:48:00,36.3,13.1,30.10,West,260,0.0,0.0,38,0.00,CLR,CLR,0.00,WeatherDisplay:10.34,2013-04-05 04:48:00,
2013-04-05 00:53:00,36.1,12.9,30.10,West,260,0.0,0.0,38,0.00,CLR,CLR,0.00,WeatherDisplay:10.34,2013-04-05 04:53:00,
2013-04-05 00:58:00,36.0,13.4,30.11,West,260,0.0,0.0,39,0.00,CLR,CLR,0.00,WeatherDisplay:10.34,2013-04-05 04:58:00,
2013-04-05 01:03:00,35.8,13.2,30.10,West,260,0.0,0.0,39,0.00,CLR,CLR,0.00,WeatherDisplay:10.34,2013-04-05 05:03:00,
2013-04-05 01:08:00,35.6,13.0,30.10,West,260,0.0,0.0,39,0.00,CLR,CLR,0.00,WeatherDisplay:10.34,2013-04-05 05:08:00,
2013-04-05 01:13:00,35.6,13.0,30.10,West,260,0.0,0.0,39,0.00,CLR,CLR,0.00,WeatherDisplay:10.34,2013-04-05 05:13:00,
2013-04-05 01:18:00,35.4,13.5,30.10,West,260,0.0,0.0,40,0.00,CLR,CLR,0.00,WeatherDisplay:10.34,2013-04-05 05:18:00,
2013-04-05 01:23:00,35.2,13.3,30.11,West,260,0.0,0.0,40,0.00,CLR,CLR,0.00,WeatherDisplay:10.34,2013-04-05 05:23:00,
2013-04-05 01:28:00,35.1,13.1,30.10,West,260,0.0,0.0,40,0.00,CLR,CLR,0.00,WeatherDisplay:10.34,2013-04-05 05:28:00,
2013-04-05 01:33:00,35.1,13.1,30.10,West,260,0.0,0.0,40,0.00,CLR,CLR,0.00,WeatherDisplay:10.34,2013-04-05 05:33:00,
2013-04-05 01:38:00,35.1,13.7,30.10,West,260,0.0,0.0,41,0.00,CLR,CLR,0.00,WeatherDisplay:10.34,2013-04-05 05:38:00,
2013-04-05 01:43:00,34.9,13.5,30.10,West,260,0.0,0.0,41,0.00,CLR,CLR,0.00,WeatherDisplay:10.34,2013-04-05 05:43:00,
2013-04-05 01:48:00,34.9,13.5,30.10,West,260,0.0,0.0,41,0.00,CLR,CLR,0.00,WeatherDisplay:10.34,2013-04-05 05:48:00,
2013-04-05 01:54:00,34.9,13.5,30.10,West,260,0.0,0.0,41,0.00,CLR,CLR,0.00,WeatherDisplay:10.34,2013-04-05 05:54:00,
2013-04-05 01:59:00,34.9,14.1,30.10,West,260,0.0,0.0,42,0.00,CLR,CLR,0.00,WeatherDisplay:10.34,2013-04-05 05:59:00,
2013-04-05 02:04:00,34.7,13.9,30.10,West,260,0.0,0.0,42,0.00,CLR,CLR,0.00,WeatherDisplay:10.34,2013-04-05 06:04:00,
2013-04-05 02:10:00,34.7,14.5,30.10,West,260,0.0,0.0,43,0.00,CLR,CLR,0.00,WeatherDisplay:10.34,2013-04-05 06:10:00,
2013-04-05 02:15:00,34.5,14.8,30.10,West,260,0.0,0.0,44,0.00,CLR,CLR,0.00,WeatherDisplay:10.34,2013-04-05 06:15:00,
2013-04-05 02:21:00,34.5,14.8,30.07,West,260,0.0,0.0,44,0.00,CLR,CLR,0.00,WeatherDisplay:10.34,2013-04-05 06:21:00,
2013-04-05 02:26:00,34.5,14.8,30.07,West,260,0.0,0.0,44,0.00,CLR,CLR,0.00,WeatherDisplay:10.34,2013-04-05 06:26:00,
2013-04-05 02:31:00,34.5,14.8,30.07,West,260,0.0,0.0,44,0.00,CLR,CLR,0.00,WeatherDisplay:10.34,2013-04-05 06:31:00,
2013-04-05 02:36:00,34.5,14.8,30.07,West,260,0.0,0.0,44,0.00,CLR,CLR,0.00,WeatherDisplay:10.34,2013-04-05 06:36:00,
2013-04-05 02:41:00,34.7,15.0,30.07,West,260,0.0,0.0,44,0.00,CLR,CLR,0.00,WeatherDisplay:10.34,2013-04-05 06:41:00,
2013-04-05 02:46:00,34.7,15.0,30.07,West,260,0.0,0.0,44,0.00,CLR,CLR,0.00,WeatherDisplay:10.34,2013-04-05 06:46:00,
2013-04-05 02:51:00,34.7,15.5,30.07,West,260,0.0,0.0,45,0.00,CLR,CLR,0.00,WeatherDisplay:10.34,2013-04-05 06:51:00,
2013-04-05 02:56:00,34.5,15.3,30.07,West,260,0.0,0.0,45,0.00,CLR,CLR,0.00,WeatherDisplay:10.34,2013-04-05 06:56:00,
2013-04-05 03:01:00,34.5,15.3,30.07,West,260,0.0,0.0,45,0.00,CLR,CLR,0.00,WeatherDisplay:10.34,2013-04-05 07:01:00,
2013-04-05 03:06:00,34.5,15.3,30.07,West,260,0.0,0.0,45,0.00,CLR,CLR,0.00,WeatherDisplay:10.34,2013-04-05 07:06:00,
2013-04-05 03:11:00,34.3,15.7,30.07,West,260,0.0,0.0,46,0.00,CLR,CLR,0.00,WeatherDisplay:10.34,2013-04-05 07:11:00,
2013-04-05 03:16:00,34.3,15.7,30.07,West,260,0.0,0.0,46,0.00,CLR,CLR,0.00,WeatherDisplay:10.34,2013-04-05 07:16:00,
2013-04-05 03:21:00,34.2,15.5,30.07,West,260,0.0,0.0,46,0.00,CLR,CLR,0.00,WeatherDisplay:10.34,2013-04-05 07:21:00,
2013-04-05 03:26:00,34.0,15.3,30.07,West,260,0.0,0.0,46,0.00,CLR,CLR,0.00,WeatherDisplay:10.34,2013-04-05 07:26:00,
2013-04-05 03:31:00,33.8,15.2,30.07,West,260,0.0,0.0,46,0.00,CLR,CLR,0.00,WeatherDisplay:10.34,2013-04-05 07:31:00,
2013-04-05 03:37:00,33.8,15.2,30.07,West,260,0.0,0.0,46,0.00,CLR,CLR,0.00,WeatherDisplay:10.34,2013-04-05 07:37:00,
2013-04-05 03:42:00,33.6,15.5,30.07,West,260,0.0,0.0,47,0.00,CLR,CLR,0.00,WeatherDisplay:10.34,2013-04-05 07:42:00,
2013-04-05 03:47:00,33.6,15.5,30.07,West,260,0.0,0.0,47,0.00,CLR,CLR,0.00,WeatherDisplay:10.34,2013-04-05 07:47:00,
2013-04-05 03:53:00,33.6,15.5,30.07,West,260,0.0,0.0,47,0.00,CLR,CLR,0.00,WeatherDisplay:10.34,2013-04-05 07:53:00,
2013-04-05 03:58:00,33.6,16.0,30.07,West,260,0.0,0.0,48,0.00,CLR,CLR,0.00,WeatherDisplay:10.34,2013-04-05 07:58:00,
2013-04-05 04:03:00,33.6,16.0,30.07,West,260,0.0,0.0,48,0.00,CLR,CLR,0.00,WeatherDisplay:10.34,2013-04-05 08:03:00,
2013-04-05 04:10:00,33.6,16.5,30.07,West,260,0.0,0.0,49,0.00,CLR,CLR,0.00,WeatherDisplay:10.34,2013-04-05 08:10:00,
2013-04-05 04:15:00,33.4,16.3,30.07,West,265,0.0,0.0,49,0.00,CLR,CLR,0.00,WeatherDisplay:10.34,2013-04-05 08:15:00,
2013-04-05 04:21:00,33.6,16.5,30.07,West,266,0.0,3.0,49,0.00,CLR,CLR,0.00,WeatherDisplay:10.34,2013-04-05 08:21:00,
2013-04-05 04:26:00,33.6,16.5,30.07,West,266,0.0,3.0,49,0.00,CLR,CLR,0.00,WeatherDisplay:10.34,2013-04-05 08:26:00,
2013-04-05 04:31:00,33.8,16.6,30.07,West,276,3.0,5.0,49,0.00,CLR,CLR,0.00,WeatherDisplay:10.34,2013-04-05 08:31:00,
2013-04-05 04:36:00,33.8,16.6,30.07,West,276,0.0,0.0,49,0.00,CLR,CLR,0.00,WeatherDisplay:10.34,2013-04-05 08:36:00,
2013-04-05 04:41:00,33.8,16.6,30.07,West,276,0.0,0.0,49,0.00,CLR,CLR,0.00,WeatherDisplay:10.34,2013-04-05 08:41:00,
2013-04-05 04:46:00,33.6,16.9,30.04,West,275,0.0,0.0,50,0.00,CLR,CLR,0.00,WeatherDisplay:10.34,2013-04-05 08:46:00,
2013-04-05 04:51:00,33.6,16.9,30.04,West,275,0.0,0.0,50,0.00,CLR,CLR,0.00,WeatherDisplay:10.34,2013-04-05 08:51:00,
2013-04-05 04:56:00,33.8,17.1,30.04,West,275,0.0,0.0,50,0.00,CLR,CLR,0.00,WeatherDisplay:10.34,2013-04-05 08:56:00,
2013-04-05 05:01:00,33.8,17.1,30.04,West,275,0.0,0.0,50,0.00,CLR,CLR,0.00,WeatherDisplay:10.34,2013-04-05 09:01:00,
2013-04-05 05:06:00,33.6,16.9,30.04,West,275,0.0,0.0,50,0.00,CLR,CLR,0.00,WeatherDisplay:10.34,2013-04-05 09:06:00,
2013-04-05 05:11:00,33.6,17.4,30.04,West,275,0.0,0.0,51,0.00,CLR,CLR,0.00,WeatherDisplay:10.34,2013-04-05 09:11:00,
2013-04-05 05:16:00,33.4,17.2,30.04,West,275,0.0,0.0,51,0.00,CLR,CLR,0.00,WeatherDisplay:10.34,2013-04-05 09:16:00,
2013-04-05 05:21:00,33.6,17.4,30.04,West,275,0.0,0.0,51,0.00,CLR,CLR,0.00,WeatherDisplay:10.34,2013-04-05 09:21:00,
2013-04-05 05:26:00,33.6,17.4,30.04,WNW,282,0.0,0.0,51,0.00,CLR,CLR,0.00,WeatherDisplay:10.34,2013-04-05 09:26:00,
2013-04-05 05:31:00,33.6,17.4,30.04,WNW,282,0.0,2.0,51,0.00,CLR,CLR,0.00,WeatherDisplay:10.34,2013-04-05 09:31:00,
2013-04-05 05:36:00,33.6,17.4,30.04,WNW,282,0.0,0.0,51,0.00,CLR,CLR,0.00,WeatherDisplay:10.34,2013-04-05 09:36:00,
2013-04-05 05:42:00,33.8,17.6,30.04,WNW,282,0.0,0.0,51,0.00,CLR,CLR,0.00,WeatherDisplay:10.34,2013-04-05 09:42:00,
2013-04-05 05:48:00,33.6,17.8,30.04,WNW,282,0.0,2.0,52,0.00,CLR,CLR,0.00,WeatherDisplay:10.34,2013-04-05 09:48:00,
2013-04-05 05:53:00,33.6,17.8,30.04,WNW,282,0.0,0.0,52,0.00,CLR,CLR,0.00,WeatherDisplay:10.34,2013-04-05 09:53:00,
2013-04-05 05:58:00,33.8,18.0,30.04,West,279,0.0,0.0,52,0.00,CLR,CLR,0.00,WeatherDisplay:10.34,2013-04-05 09:58:00,
2013-04-05 06:03:00,34.0,17.7,30.01,WSW,256,0.0,3.0,51,0.00,CLR,CLR,0.00,WeatherDisplay:10.34,2013-04-05 10:03:00,
2013-04-05 06:08:00,34.0,17.7,30.01,WSW,255,0.0,0.0,51,0.00,CLR,CLR,0.00,WeatherDisplay:10.34,2013-04-05 10:08:00,
2013-04-05 06:13:00,34.0,17.7,30.01,WSW,255,0.0,2.0,51,0.00,CLR,CLR,0.00,WeatherDisplay:10.34,2013-04-05 10:13:00,
2013-04-05 06:18:00,34.0,17.7,30.01,WSW,255,0.0,3.0,51,0.00,CLR,CLR,0.00,WeatherDisplay:10.34,2013-04-05 10:18:00,
2013-04-05 06:23:00,34.0,17.7,30.01,WSW,255,0.0,0.0,51,0.00,CLR,CLR,0.00,WeatherDisplay:10.34,2013-04-05 10:23:00,
2013-04-05 06:28:00,34.0,17.7,30.01,WSW,251,0.0,5.0,51,0.00,CLR,CLR,0.00,WeatherDisplay:10.34,2013-04-05 10:28:00,
2013-04-05 06:33:00,33.8,17.6,30.01,WSW,251,0.0,0.0,51,0.00,CLR,CLR,0.00,WeatherDisplay:10.34,2013-04-05 10:33:00,
2013-04-05 06:40:00,34.0,17.7,30.01,West,265,0.0,0.0,51,0.00,CLR,CLR,0.00,WeatherDisplay:10.34,2013-04-05 10:40:00,
2013-04-05 06:45:00,34.0,17.7,30.01,West,265,0.0,3.0,51,0.00,CLR,CLR,0.00,WeatherDisplay:10.34,2013-04-05 10:45:00,
2013-04-05 06:50:00,34.0,17.7,30.01,WSW,249,0.0,0.0,51,0.00,CLR,CLR,0.00,WeatherDisplay:10.34,2013-04-05 10:50:00,
2013-04-05 06:55:00,34.0,17.7,30.01,WSW,249,0.0,0.0,51,0.00,CLR,CLR,0.00,WeatherDisplay:10.34,2013-04-05 10:55:00,
2013-04-05 07:01:00,33.8,17.6,30.01,WSW,238,3.0,6.0,51,0.00,CLR,CLR,0.00,WeatherDisplay:10.34,2013-04-05 11:01:00,
2013-04-05 07:06:00,33.8,17.6,30.01,West,260,4.0,7.0,51,0.00,CLR,CLR,0.00,WeatherDisplay:10.34,2013-04-05 11:06:00,
2013-04-05 07:11:00,34.0,17.7,30.01,WSW,250,3.0,5.0,51,0.00,CLR,CLR,0.00,WeatherDisplay:10.34,2013-04-05 11:11:00,
2013-04-05 07:16:00,34.0,18.2,30.04,WNW,282,0.0,3.0,52,0.00,CLR,CLR,0.00,WeatherDisplay:10.34,2013-04-05 11:16:00,
2013-04-05 07:21:00,34.2,18.3,30.04,West,278,3.0,6.0,52,0.00,CLR,CLR,0.00,WeatherDisplay:10.34,2013-04-05 11:21:00,
2013-04-05 07:26:00,34.3,18.5,30.04,WNW,282,0.0,0.0,52,0.00,CLR,CLR,0.00,WeatherDisplay:10.34,2013-04-05 11:26:00,
2013-04-05 07:31:00,34.5,18.2,30.04,WNW,282,0.0,0.0,51,0.00,CLR,CLR,0.00,WeatherDisplay:10.34,2013-04-05 11:31:00,
2013-04-05 07:36:00,34.7,18.4,30.04,West,276,0.0,0.0,51,0.00,CLR,CLR,0.00,WeatherDisplay:10.34,2013-04-05 11:36:00,
2013-04-05 07:41:00,34.9,18.6,30.04,West,276,0.0,3.0,51,0.00,CLR,CLR,0.00,WeatherDisplay:10.34,2013-04-05 11:41:00,
2013-04-05 07:46:00,34.9,18.1,30.04,West,272,0.0,3.0,50,0.00,CLR,CLR,0.00,WeatherDisplay:10.34,2013-04-05 11:46:00,
2013-04-05 07:51:00,34.9,18.1,30.04,WNW,282,3.0,5.0,50,0.00,CLR,CLR,0.00,WeatherDisplay:10.34,2013-04-05 11:51:00,
2013-04-05 07:56:00,34.9,18.1,30.04,West,281,0.0,6.0,50,0.00,CLR,CLR,0.00,WeatherDisplay:10.34,2013-04-05 11:56:00,
2013-04-05 08:01:00,35.1,18.3,30.04,WNW,296,3.0,6.0,50,0.00,CLR,CLR,0.00,WeatherDisplay:10.34,2013-04-05 12:01:00,
2013-04-05 08:06:00,35.4,18.6,30.01,West,260,4.0,8.0,50,0.00,CLR,CLR,0.00,WeatherDisplay:10.34,2013-04-05 12:06:00,
2013-04-05 08:11:00,35.4,18.1,30.01,West,280,0.0,0.0,49,0.00,CLR,CLR,0.00,WeatherDisplay:10.34,2013-04-05 12:11:00,
2013-04-05 08:16:00,35.6,18.3,30.01,WSW,250,6.0,9.0,49,0.00,CLR,CLR,0.00,WeatherDisplay:10.34,2013-04-05 12:16:00,
2013-04-05 08:21:00,35.4,18.1,30.01,SW,235,4.0,12.0,49,0.00,CLR,CLR,0.00,WeatherDisplay:10.34,2013-04-05 12:21:00,
2013-04-05 08:26:00,35.6,18.3,30.01,West,277,4.0,6.0,49,0.00,CLR,CLR,0.00,WeatherDisplay:10.34,2013-04-05 12:26:00,
2013-04-05 08:31:00,35.6,18.3,30.01,West,277,0.0,3.0,49,0.00,CLR,CLR,0.00,WeatherDisplay:10.34,2013-04-05 12:31:00,
2013-04-05 08:36:00,35.8,18.5,30.01,NNW,336,3.0,5.0,49,0.00,CLR,CLR,0.00,WeatherDisplay:10.34,2013-04-05 12:36:00,
2013-04-05 08:41:00,36.0,18.1,30.01,West,275,4.0,9.0,48,0.00,CLR,CLR,0.00,WeatherDisplay:10.34,2013-04-05 12:41:00,
2013-04-05 08:46:00,36.1,17.8,30.01,NE,44,5.0,9.0,47,0.00,CLR,CLR,0.00,WeatherDisplay:10.34,2013-04-05 12:46:00,
2013-04-05 08:51:00,36.3,18.0,30.01,West,277,4.0,15.0,47,0.00,CLR,CLR,0.00,WeatherDisplay:10.34,2013-04-05 12:51:00,
2013-04-05 08:56:00,36.5,18.2,30.01,WSW,248,4.0,14.0,47,0.00,CLR,CLR,0.00,WeatherDisplay:10.34,2013-04-05 12:56:00,
2013-04-05 09:01:00,36.7,17.8,30.01,SW,219,6.0,16.0,46,0.00,CLR,CLR,0.00,WeatherDisplay:10.34,2013-04-05 13:01:00,
2013-04-05 09:06:00,36.9,17.5,30.01,WNW,289,8.0,37.0,45,0.00,CLR,CLR,0.00,WeatherDisplay:10.34,2013-04-05 13:06:00,
2013-04-05 09:11:00,37.0,17.6,30.01,West,266,15.0,23.0,45,0.00,CLR,CLR,0.00,WeatherDisplay:10.34,2013-04-05 13:11:00,
2013-04-05 09:16:00,37.4,17.4,30.01,WSW,250,13.0,23.0,44,0.00,CLR,CLR,0.00,WeatherDisplay:10.34,2013-04-05 13:16:00,
2013-04-05 09:21:00,37.6,17.6,30.01,WSW,248,8.0,15.0,44,0.00,CLR,CLR,0.00,WeatherDisplay:10.34,2013-04-05 13:21:00,
2013-04-05 09:26:00,37.8,17.8,30.01,North,356,10.0,23.0,44,0.00,CLR,CLR,0.00,WeatherDisplay:10.34,2013-04-05 13:26:00,
2013-04-05 09:31:00,37.9,17.4,30.01,NW,314,13.0,20.0,43,0.00,CLR,CLR,0.00,WeatherDisplay:10.34,2013-04-05 13:31:00,
2013-04-05 09:36:00,38.3,17.7,30.01,WNW,295,9.0,17.0,43,0.00,CLR,CLR,0.00,WeatherDisplay:10.34,2013-04-05 13:36:00,
2013-04-05 09:41:00,38.5,17.3,30.01,NNW,331,8.0,20.0,42,0.00,CLR,CLR,0.00,WeatherDisplay:10.34,2013-04-05 13:41:00,
2013-04-05 09:46:00,38.3,16.6,29.98,West,261,7.0,12.0,41,0.00,CLR,CLR,0.00,WeatherDisplay:10.34,2013-04-05 13:46:00,
2013-04-05 09:51:00,38.1,16.5,29.98,NW,318,5.0,14.0,41,0.00,CLR,CLR,0.00,WeatherDisplay:10.34,2013-04-05 13:51:00,
2013-04-05 09:56:00,38.3,16.6,29.98,NNW,327,7.0,12.0,41,0.00,CLR,CLR,0.00,WeatherDisplay:10.34,2013-04-05 13:56:00,
2013-04-05 10:01:00,38.7,17.0,29.98,NW,309,15.0,29.0,41,0.00,CLR,CLR,0.00,WeatherDisplay:10.34,2013-04-05 14:01:00,
2013-04-05 10:06:00,38.8,16.5,29.98,NNW,329,8.0,21.0,40,0.00,CLR,CLR,0.00,WeatherDisplay:10.34,2013-04-05 14:06:00,
2013-04-05 10:11:00,39.2,16.9,29.98,WNW,290,13.0,24.0,40,0.00,CLR,CLR,0.00,WeatherDisplay:10.34,2013-04-05 14:11:00,
2013-04-05 10:16:00,39.6,17.2,29.98,NNW,339,4.0,18.0,40,0.00,CLR,CLR,0.00,WeatherDisplay:10.34,2013-04-05 14:16:00,
2013-04-05 10:21:00,40.3,17.3,29.98,SSW,205,18.0,28.0,39,0.00,CLR,CLR,0.00,WeatherDisplay:10.34,2013-04-05 14:21:00,
2013-04-05 10:26:00,40.6,17.6,29.98,SSE,161,4.0,9.0,39,0.00,CLR,CLR,0.00,WeatherDisplay:10.34,2013-04-05 14:26:00,
2013-04-05 10:31:00,41.2,17.5,29.98,WSW,242,16.0,16.0,38,0.00,CLR,CLR,0.00,WeatherDisplay:10.34,2013-04-05 14:31:00,
2013-04-05 10:36:00,41.5,17.8,29.98,WSW,242,7.0,18.0,38,0.00,CLR,CLR,0.00,WeatherDisplay:10.34,2013-04-05 14:36:00,
2013-04-05 10:41:00,41.7,17.9,29.98,North,8,3.0,15.0,38,0.00,CLR,CLR,0.00,WeatherDisplay:10.34,2013-04-05 14:41:00,
2013-04-05 10:46:00,42.3,17.8,29.98,SW,216,14.0,22.0,37,0.00,CLR,CLR,0.00,WeatherDisplay:10.34,2013-04-05 14:46:00,
2013-04-05 10:51:00,42.6,17.5,29.98,West,277,11.0,18.0,36,0.00,CLR,CLR,0.00,WeatherDisplay:10.34,2013-04-05 14:51:00,
2013-04-05 10:56:00,42.8,17.0,29.98,West,261,6.0,17.0,35,0.00,CLR,CLR,0.00,WeatherDisplay:10.34,2013-04-05 14:56:00,
2013-04-05 11:01:00,43.2,17.3,29.98,North,0,6.0,14.0,35,0.00,CLR,CLR,0.00,WeatherDisplay:10.34,2013-04-05 15:01:00,
2013-04-05 11:06:00,43.5,17.6,29.98,NNW,335,4.0,8.0,35,0.00,CLR,CLR,0.00,WeatherDisplay:10.34,2013-04-05 15:06:00,
2013-04-05 11:12:00,43.7,17.1,29.98,SSW,210,13.0,21.0,34,0.00,CLR,CLR,0.00,WeatherDisplay:10.34,2013-04-05 15:12:00,
2013-04-05 11:17:00,44.1,16.8,29.94,WSW,239,11.0,22.0,33,0.00,CLR,CLR,0.00,WeatherDisplay:10.34,2013-04-05 15:17:00,
2013-04-05 11:23:00,44.2,16.9,29.94,NNE,22,4.0,6.0,33,0.00,CLR,CLR,0.00,WeatherDisplay:10.34,2013-04-05 15:23:00,
2013-04-05 11:28:00,44.6,16.5,29.94,NNE,13,5.0,9.0,32,0.00,CLR,CLR,0.00,WeatherDisplay:10.34,2013-04-05 15:28:00,
2013-04-05 11:33:00,44.8,16.7,29.94,NNW,331,4.0,7.0,32,0.00,CLR,CLR,0.00,WeatherDisplay:10.34,2013-04-05 15:33:00,
2013-04-05 11:38:00,44.8,16.7,29.94,North,351,4.0,7.0,32,0.00,CLR,CLR,0.00,WeatherDisplay:10.34,2013-04-05 15:38:00,
2013-04-05 11:43:00,45.1,16.3,29.94,North,351,6.0,9.0,31,0.00,CLR,CLR,0.00,WeatherDisplay:10.34,2013-04-05 15:43:00,
2013-04-05 11:48:00,45.1,16.3,29.94,West,263,0.0,3.0,31,0.00,CLR,CLR,0.00,WeatherDisplay:10.34,2013-04-05 15:48:00,
2013-04-05 11:53:00,45.3,16.4,29.94,SSW,199,6.0,9.0,31,0.00,CLR,CLR,0.00,WeatherDisplay:10.34,2013-04-05 15:53:00,
2013-04-05 11:58:00,45.7,16.7,29.94,NE,49,0.0,3.0,31,0.00,CLR,CLR,0.00,WeatherDisplay:10.34,2013-04-05 15:58:00,
2013-04-05 12:03:00,46.0,16.3,29.94,WSW,254,4.0,15.0,30,0.00,CLR,CLR,0.00,WeatherDisplay:10.34,2013-04-05 16:03:00,
2013-04-05 12:08:00,46.2,16.4,29.94,SSW,202,4.0,12.0,30,0.00,CLR,CLR,0.00,WeatherDisplay:10.34,2013-04-05 16:08:00,
2013-04-05 12:13:00,46.4,16.6,29.94,South,181,4.0,6.0,30,0.00,CLR,CLR,0.00,WeatherDisplay:10.34,2013-04-05 16:13:00,
2013-04-05 12:18:00,46.6,16.8,29.94,SW,231,4.0,6.0,30,0.00,CLR,CLR,0.00,WeatherDisplay:10.34,2013-04-05 16:18:00,
2013-04-05 12:23:00,47.1,17.2,29.94,West,265,3.0,3.0,30,0.00,CLR,CLR,0.00,WeatherDisplay:10.34,2013-04-05 16:23:00,
2013-04-05 12:28:00,47.3,16.6,29.94,NW,306,4.0,9.0,29,0.00,CLR,CLR,0.00,WeatherDisplay:10.34,2013-04-05 16:28:00,
2013-04-05 12:33:00,47.5,16.8,29.91,North,351,8.0,13.0,29,0.00,CLR,CLR,0.00,WeatherDisplay:10.34,2013-04-05 16:33:00,
2013-04-05 12:38:00,47.8,17.1,29.91,NNE,20,6.0,9.0,29,0.00,CLR,CLR,0.00,WeatherDisplay:10.34,2013-04-05 16:38:00,
2013-04-05 12:43:00,48.0,16.4,29.91,WSW,247,5.0,6.0,28,0.00,CLR,CLR,0.00,WeatherDisplay:10.34,2013-04-05 16:43:00,
2013-04-05 12:48:00,48.0,16.4,29.91,SW,230,6.0,8.0,28,0.00,CLR,CLR,0.00,WeatherDisplay:10.34,2013-04-05 16:48:00,
2013-04-05 12:53:00,48.4,16.7,29.91,ENE,64,4.0,6.0,28,0.00,CLR,CLR,0.00,WeatherDisplay:10.34,2013-04-05 16:53:00,
2013-04-05 12:58:00,48.7,17.0,29.91,ENE,62,4.0,8.0,28,0.00,CLR,CLR,0.00,WeatherDisplay:10.34,2013-04-05 16:58:00,
2013-04-05 13:03:00,48.7,17.0,29.88,North,351,7.0,14.0,28,0.00,CLR,CLR,0.00,WeatherDisplay:10.34,2013-04-05 17:03:00,
2013-04-05 13:08:00,49.1,16.5,29.88,NNE,12,5.0,12.0,27,0.00,CLR,CLR,0.00,WeatherDisplay:10.34,2013-04-05 17:08:00,
2013-04-05 13:13:00,49.5,16.8,29.88,South,182,3.0,5.0,27,0.00,CLR,CLR,0.00,WeatherDisplay:10.34,2013-04-05 17:13:00,
2013-04-05 13:18:00,50.0,17.3,29.88,ESE,105,3.0,6.0,27,0.00,CLR,CLR,0.00,WeatherDisplay:10.34,2013-04-05 17:18:00,
2013-04-05 13:23:00,50.2,17.4,29.88,NW,308,9.0,12.0,27,0.00,CLR,CLR,0.00,WeatherDisplay:10.34,2013-04-05 17:23:00,
2013-04-05 13:28:00,50.0,17.3,29.88,South,174,5.0,10.0,27,0.00,CLR,CLR,0.00,WeatherDisplay:10.34,2013-04-05 17:28:00,
2013-04-05 13:33:00,50.4,17.6,29.88,SW,232,4.0,12.0,27,0.00,CLR,CLR,0.00,WeatherDisplay:10.34,2013-04-05 17:33:00,
2013-04-05 13:38:00,50.7,17.9,29.88,ENE,65,3.0,6.0,27,0.00,CLR,CLR,0.00,WeatherDisplay:10.34,2013-04-05 17:38:00,
2013-04-05 13:44:00,50.7,17.9,29.88,ENE,75,5.0,9.0,27,0.00,CLR,CLR,0.00,WeatherDisplay:10.34,2013-04-05 17:44:00,
2013-04-05 13:49:00,50.7,17.9,29.88,West,267,5.0,8.0,27,0.00,CLR,CLR,0.00,WeatherDisplay:10.34,2013-04-05 17:49:00,
2013-04-05 13:54:00,50.7,17.9,29.88,NW,316,4.0,5.0,27,0.00,CLR,CLR,0.00,WeatherDisplay:10.34,2013-04-05 17:54:00,
2013-04-05 14:00:00,50.9,18.1,29.88,West,270,6.0,12.0,27,0.00,CLR,CLR,0.00,WeatherDisplay:10.34,2013-04-05 18:00:00,
2013-04-05 14:05:00,50.7,17.9,29.88,North,3,4.0,8.0,27,0.00,CLR,CLR,0.00,WeatherDisplay:10.34,2013-04-05 18:05:00,
2013-04-05 14:10:00,50.5,17.7,29.88,North,10,4.0,9.0,27,0.00,CLR,CLR,0.00,WeatherDisplay:10.34,2013-04-05 18:10:00,
2013-04-05 14:15:00,50.5,17.7,29.88,NNE,21,7.0,10.0,27,0.00,CLR,CLR,0.00,WeatherDisplay:10.34,2013-04-05 18:15:00,
2013-04-05 14:20:00,50.4,17.6,29.88,WNW,295,5.0,12.0,27,0.00,CLR,CLR,0.00,WeatherDisplay:10.34,2013-04-05 18:20:00,
2013-04-05 14:25:00,50.2,17.4,29.88,NE,34,4.0,8.0,27,0.00,CLR,CLR,0.00,WeatherDisplay:10.34,2013-04-05 18:25:00,
2013-04-05 14:31:00,50.2,17.4,29.85,North,9,10.0,13.0,27,0.00,CLR,CLR,0.00,WeatherDisplay:10.34,2013-04-05 18:31:00,
2013-04-05 14:36:00,50.2,17.4,29.85,NNE,18,5.0,7.0,27,0.00,CLR,CLR,0.00,WeatherDisplay:10.34,2013-04-05 18:36:00,
2013-04-05 14:41:00,50.4,17.6,29.85,South,180,4.0,14.0,27,0.00,CLR,CLR,0.00,WeatherDisplay:10.34,2013-04-05 18:41:00,
2013-04-05 14:46:00,50.5,17.7,29.85,NW,315,5.0,9.0,27,0.00,CLR,CLR,0.00,WeatherDisplay:10.34,2013-04-05 18:46:00,
2013-04-05 14:51:00,50.7,17.9,29.85,NNW,347,8.0,14.0,27,0.00,CLR,CLR,0.00,WeatherDisplay:10.34,2013-04-05 18:51:00,
2013-04-05 14:57:00,50.5,17.7,29.85,NNE,33,4.0,7.0,27,0.00,CLR,CLR,0.00,WeatherDisplay:10.34,2013-04-05 18:57:00,
2013-04-05 15:02:00,50.4,17.6,29.85,NW,313,3.0,5.0,27,0.00,FEW,FEW,0.00,WeatherDisplay:10.34,2013-04-05 19:02:00,
2013-04-05 15:07:00,50.7,17.9,29.85,NNE,18,12.0,16.0,27,0.00,FEW,FEW,0.00,WeatherDisplay:10.34,2013-04-05 19:07:00,
2013-04-05 15:12:00,50.9,18.1,29.85,NW,326,5.0,8.0,27,0.00,FEW,FEW,0.00,WeatherDisplay:10.34,2013-04-05 19:12:00,
2013-04-05 15:18:00,50.7,17.9,29.82,NNE,13,4.0,8.0,27,0.00,FEW,FEW,0.00,WeatherDisplay:10.34,2013-04-05 19:18:00,
2013-04-05 15:23:00,50.9,18.1,29.82,NNE,14,6.0,9.0,27,0.00,FEW,FEW,0.00,WeatherDisplay:10.34,2013-04-05 19:23:00,
2013-04-05 15:28:00,50.7,17.9,29.82,North,2,3.0,7.0,27,0.00,FEW,FEW,0.00,WeatherDisplay:10.34,2013-04-05 19:28:00,
2013-04-05 15:33:00,50.2,17.4,29.82,NNE,25,10.0,17.0,27,0.00,FEW,FEW,0.00,WeatherDisplay:10.34,2013-04-05 19:33:00,
2013-04-05 15:38:00,50.2,17.4,29.82,North,1,8.0,12.0,27,0.00,FEW,FEW,0.00,WeatherDisplay:10.34,2013-04-05 19:38:00,
2013-04-05 15:43:00,50.4,17.6,29.82,SW,233,5.0,10.0,27,0.00,FEW,FEW,0.00,WeatherDisplay:10.34,2013-04-05 19:43:00,
2013-04-05 15:48:00,50.7,17.9,29.82,South,189,5.0,10.0,27,0.00,FEW,FEW,0.00,WeatherDisplay:10.34,2013-04-05 19:48:00,
2013-04-05 15:53:00,50.9,18.1,29.82,North,0,8.0,14.0,27,0.00,FEW,FEW,0.00,WeatherDisplay:10.34,2013-04-05 19:53:00,
2013-04-05 15:58:00,50.9,17.2,29.82,North,8,6.0,9.0,26,0.00,FEW,FEW,0.00,WeatherDisplay:10.34,2013-04-05 19:58:00,
2013-04-05 16:03:00,50.9,18.1,29.82,NNE,30,6.0,9.0,27,0.00,BKN,BKN,0.00,WeatherDisplay:10.34,2013-04-05 20:03:00,
2013-04-05 16:08:00,50.5,16.9,29.82,North,11,6.0,13.0,26,0.00,BKN,BKN,0.00,WeatherDisplay:10.34,2013-04-05 20:08:00,
2013-04-05 16:13:00,50.4,16.7,29.82,East,86,3.0,3.0,26,0.00,BKN,BKN,0.00,WeatherDisplay:10.34,2013-04-05 20:13:00,
2013-04-05 16:18:00,50.2,16.6,29.82,NE,35,7.0,9.0,26,0.00,BKN,BKN,0.00,WeatherDisplay:10.34,2013-04-05 20:18:00,
2013-04-05 16:23:00,50.2,16.6,29.82,NNW,346,7.0,12.0,26,0.00,BKN,BKN,0.00,WeatherDisplay:10.34,2013-04-05 20:23:00,
2013-04-05 16:28:00,50.2,16.6,29.82,NNW,347,5.0,16.0,26,0.00,BKN,BKN,0.00,WeatherDisplay:10.34,2013-04-05 20:28:00,
2013-04-05 16:33:00,50.0,16.4,29.82,NNE,17,6.0,10.0,26,0.00,BKN,BKN,0.00,WeatherDisplay:10.34,2013-04-05 20:33:00,
2013-04-05 16:38:00,49.8,16.3,29.82,WNW,284,7.0,16.0,26,0.00,BKN,BKN,0.00,WeatherDisplay:10.34,2013-04-05 20:38:00,
2013-04-05 16:43:00,49.6,16.1,29.82,NW,323,7.0,9.0,26,0.00,BKN,BKN,0.00,WeatherDisplay:10.34,2013-04-05 20:43:00,
2013-04-05 16:48:00,49.6,16.1,29.82,ENE,73,3.0,6.0,26,0.00,BKN,BKN,0.00,WeatherDisplay:10.34,2013-04-05 20:48:00,
2013-04-05 16:54:00,49.5,15.9,29.82,North,351,9.0,14.0,26,0.00,BKN,BKN,0.00,WeatherDisplay:10.34,2013-04-05 20:54:00,
2013-04-05 17:00:00,49.3,15.8,29.82,NNW,343,3.0,14.0,26,0.00,BKN,BKN,0.00,WeatherDisplay:10.34,2013-04-05 21:00:00,
2013-04-05 17:05:00,48.9,16.4,29.85,North,351,4.0,8.0,27,0.00,CLR,CLR,0.00,WeatherDisplay:10.34,2013-04-05 21:05:00,
2013-04-05 17:10:00,48.7,16.2,29.85,West,265,7.0,10.0,27,0.00,CLR,CLR,0.00,WeatherDisplay:10.34,2013-04-05 21:10:00,
2013-04-05 17:15:00,48.6,16.0,29.85,NNE,26,9.0,14.0,27,0.00,CLR,CLR,0.00,WeatherDisplay:10.34,2013-04-05 21:15:00,
2013-04-05 17:20:00,48.0,15.6,29.85,NW,311,3.0,6.0,27,0.00,CLR,CLR,0.00,WeatherDisplay:10.34,2013-04-05 21:20:00,
2013-04-05 17:25:00,47.8,15.4,29.85,NW,325,7.0,10.0,27,0.00,CLR,CLR,0.00,WeatherDisplay:10.34,2013-04-05 21:25:00,
2013-04-05 17:30:00,47.7,15.3,29.85,North,351,3.0,5.0,27,0.00,CLR,CLR,0.00,WeatherDisplay:10.34,2013-04-05 21:30:00,
2013-04-05 17:36:00,47.5,15.1,29.85,NNE,19,0.0,3.0,27,0.00,CLR,CLR,0.00,WeatherDisplay:10.34,2013-04-05 21:36:00,
2013-04-05 17:41:00,47.3,15.0,29.85,NNE,22,7.0,12.0,27,0.00,CLR,CLR,0.00,WeatherDisplay:10.34,2013-04-05 21:41:00,
2013-04-05 17:46:00,47.1,14.8,29.88,WNW,299,0.0,6.0,27,0.00,CLR,CLR,0.00,WeatherDisplay:10.34,2013-04-05 21:46:00,
2013-04-05 17:51:00,46.8,14.5,29.88,WSW,250,7.0,10.0,27,0.00,CLR,CLR,0.00,WeatherDisplay:10.34,2013-04-05 21:51:00,
2013-04-05 17:56:00,46.4,15.0,29.89,NNE,17,5.0,9.0,28,0.00,CLR,CLR,0.00,WeatherDisplay:10.34,2013-04-05 21:56:00,
2013-04-05 18:02:00,46.0,14.7,29.89,NW,326,6.0,15.0,28,0.00,CLR,CLR,0.00,WeatherDisplay:10.34,2013-04-05 22:02:00,
2013-04-05 18:07:00,45.5,14.2,29.89,NNE,33,4.0,6.0,28,0.00,CLR,CLR,0.00,WeatherDisplay:10.34,2013-04-05 22:07:00,
2013-04-05 18:12:00,45.3,14.1,29.89,SW,234,4.0,6.0,28,0.00,CLR,CLR,0.00,WeatherDisplay:10.34,2013-04-05 22:12:00,
2013-04-05 18:17:00,45.0,13.8,29.89,North,351,3.0,5.0,28,0.00,CLR,CLR,0.00,WeatherDisplay:10.34,2013-04-05 22:17:00,
2013-04-05 18:22:00,44.6,13.5,29.89,NNW,338,3.0,6.0,28,0.00,CLR,CLR,0.00,WeatherDisplay:10.34,2013-04-05 22:22:00,
2013-04-05 18:27:00,44.2,13.1,29.89,NW,318,0.0,3.0,28,0.00,CLR,CLR,0.00,WeatherDisplay:10.34,2013-04-05 22:27:00,
2013-04-05 18:32:00,44.2,13.1,29.89,NNW,341,0.0,3.0,28,0.00,CLR,CLR,0.00,WeatherDisplay:10.34,2013-04-05 22:32:00,
2013-04-05 18:37:00,43.9,12.8,29.89,North,3,8.0,14.0,28,0.00,CLR,CLR,0.00,WeatherDisplay:10.34,2013-04-05 22:37:00,
2013-04-05 18:42:00,43.5,13.3,29.89,North,1,0.0,0.0,29,0.00,CLR,CLR,0.00,WeatherDisplay:10.34,2013-04-05 22:42:00,
2013-04-05 18:47:00,43.3,13.2,29.92,NE,42,6.0,9.0,29,0.00,CLR,CLR,0.00,WeatherDisplay:10.34,2013-04-05 22:47:00,
2013-04-05 18:52:00,43.2,13.0,29.92,North,351,0.0,0.0,29,0.00,CLR,CLR,0.00,WeatherDisplay:10.34,2013-04-05 22:52:00,
2013-04-05 18:57:00,43.0,12.8,29.92,North,9,0.0,0.0,29,0.00,CLR,CLR,0.00,WeatherDisplay:10.34,2013-04-05 22:57:00,
2013-04-05 19:02:00,42.4,12.4,29.92,ENE,63,0.0,7.0,29,0.00,FEW,FEW,0.00,WeatherDisplay:10.34,2013-04-05 23:02:00,
2013-04-05 19:08:00,42.3,12.2,29.92,WNW,291,4.0,7.0,29,0.00,FEW,FEW,0.00,WeatherDisplay:10.34,2013-04-05 23:08:00,
2013-04-05 19:13:00,42.1,12.1,29.92,NNE,32,3.0,3.0,29,0.00,FEW,FEW,0.00,WeatherDisplay:10.34,2013-04-05 23:13:00,
2013-04-05 19:18:00,41.5,12.4,29.92,NNE,22,3.0,6.0,30,0.00,FEW,FEW,0.00,WeatherDisplay:10.34,2013-04-05 23:18:00,
2013-04-05 19:23:00,41.4,12.2,29.92,NNW,339,3.0,7.0,30,0.00,FEW,FEW,0.00,WeatherDisplay:10.34,2013-04-05 23:23:00,
2013-04-05 19:28:00,41.0,11.9,29.92,NW,324,3.0,5.0,30,0.00,FEW,FEW,0.00,WeatherDisplay:10.34,2013-04-05 23:28:00,
2013-04-05 19:34:00,40.8,11.7,29.92,NNE,26,0.0,0.0,30,0.00,FEW,FEW,0.00,WeatherDisplay:10.34,2013-04-05 23:34:00,
2013-04-05 19:40:00,40.6,12.3,29.92,North,351,4.0,6.0,31,0.00,FEW,FEW,0.00,WeatherDisplay:10.34,2013-04-05 23:40:00,
2013-04-05 19:45:00,40.5,12.9,29.92,NW,323,0.0,6.0,32,0.00,FEW,FEW,0.00,WeatherDisplay:10.34,2013-04-05 23:45:00,
2013-04-05 19:50:00,40.3,12.7,29.95,NW,323,0.0,2.0,32,0.00,FEW,FEW,0.00,WeatherDisplay:10.34,2013-04-05 23:50:00,
2013-04-05 19:57:00,39.7,13.6,29.95,WSW,249,0.0,6.0,34,0.00,FEW,FEW,0.00,WeatherDisplay:10.34,2013-04-05 23:57:00,
2013-04-05 20:02:00,39.6,14.1,29.95,North,351,4.0,9.0,35,0.00,CLR,CLR,0.00,WeatherDisplay:10.34,2013-04-06 00:02:00,
2013-04-05 20:07:00,39.2,13.8,29.95,North,2,6.0,7.0,35,0.00,CLR,CLR,0.00,WeatherDisplay:10.34,2013-04-06 00:07:00,
2013-04-05 20:12:00,39.0,13.6,29.95,NW,314,3.0,3.0,35,0.00,CLR,CLR,0.00,WeatherDisplay:10.34,2013-04-06 00:12:00,
2013-04-05 20:18:00,38.7,13.3,29.95,West,270,3.0,5.0,35,0.00,CLR,CLR,0.00,WeatherDisplay:10.34,2013-04-06 00:18:00,
2013-04-05 20:23:00,38.7,14.0,29.95,West,277,0.0,0.0,36,0.00,CLR,CLR,0.00,WeatherDisplay:10.34,2013-04-06 00:23:00,
2013-04-05 20:29:00,38.3,14.3,29.95,West,277,0.0,0.0,37,0.00,CLR,CLR,0.00,WeatherDisplay:10.34,2013-04-06 00:29:00,
2013-04-05 20:34:00,38.1,14.1,29.99,West,277,0.0,0.0,37,0.00,CLR,CLR,0.00,WeatherDisplay:10.34,2013-04-06 00:34:00,
2013-04-05 20:39:00,38.1,14.7,29.99,NNE,23,0.0,5.0,38,0.00,CLR,CLR,0.00,WeatherDisplay:10.34,2013-04-06 00:39:00,
2013-04-05 20:45:00,38.1,14.7,29.99,NNW,347,4.0,6.0,38,0.00,CLR,CLR,0.00,WeatherDisplay:10.34,2013-04-06 00:45:00,
2013-04-05 20:50:00,37.9,14.6,29.95,NNW,347,0.0,2.0,38,0.00,CLR,CLR,0.00,WeatherDisplay:10.34,2013-04-06 00:50:00,
2013-04-05 20:55:00,37.8,14.4,29.95,NNW,343,0.0,2.0,38,0.00,CLR,CLR,0.00,WeatherDisplay:10.34,2013-04-06 00:55:00,
2013-04-05 21:00:00,37.6,14.2,29.95,NW,312,0.0,2.0,38,0.00,CLR,CLR,0.00,WeatherDisplay:10.34,2013-04-06 01:00:00,
2013-04-05 21:05:00,37.6,14.2,29.99,NW,312,0.0,0.0,38,0.00,CLR,CLR,0.00,WeatherDisplay:10.34,2013-04-06 01:05:00,
2013-04-05 21:10:00,37.6,14.2,29.99,NW,316,0.0,0.0,38,0.00,CLR,CLR,0.00,WeatherDisplay:10.34,2013-04-06 01:10:00,
2013-04-05 21:17:00,37.0,14.3,29.99,NE,44,3.0,5.0,39,0.00,CLR,CLR,0.00,WeatherDisplay:10.34,2013-04-06 01:17:00,
2013-04-05 21:22:00,36.9,14.2,29.99,NNW,331,0.0,0.0,39,0.00,CLR,CLR,0.00,WeatherDisplay:10.34,2013-04-06 01:22:00,
2013-04-05 21:27:00,36.5,14.4,29.99,NW,319,0.0,5.0,40,0.00,CLR,CLR,0.00,WeatherDisplay:10.34,2013-04-06 01:27:00,
2013-04-05 21:33:00,36.3,13.7,29.99,North,356,5.0,7.0,39,0.00,CLR,CLR,0.00,WeatherDisplay:10.34,2013-04-06 01:33:00,
2013-04-05 21:38:00,36.1,13.5,29.99,NNE,18,3.0,7.0,39,0.00,CLR,CLR,0.00,WeatherDisplay:10.34,2013-04-06 01:38:00,
2013-04-05 21:43:00,36.1,13.5,29.99,NNE,25,3.0,3.0,39,0.00,CLR,CLR,0.00,WeatherDisplay:10.34,2013-04-06 01:43:00,
2013-04-05 21:48:00,36.1,13.5,29.99,SW,225,3.0,7.0,39,0.00,CLR,CLR,0.00,WeatherDisplay:10.34,2013-04-06 01:48:00,
2013-04-05 21:55:00,36.0,13.4,29.99,North,351,0.0,2.0,39,0.00,CLR,CLR,0.00,WeatherDisplay:10.34,2013-04-06 01:55:00,
2013-04-05 22:00:00,35.8,13.2,29.99,NNE,28,0.0,5.0,39,0.00,CLR,CLR,0.00,WeatherDisplay:10.34,2013-04-06 02:00:00,
2013-04-05 22:05:00,35.8,12.6,29.99,WNW,301,5.0,8.0,38,0.00,CLR,CLR,0.00,WeatherDisplay:10.34,2013-04-06 02:05:00,
2013-04-05 22:10:00,35.6,12.5,29.98,NNE,12,8.0,14.0,38,0.00,CLR,CLR,0.00,WeatherDisplay:10.34,2013-04-06 02:10:00,
2013-04-05 22:16:00,35.6,11.9,29.98,North,8,4.0,5.0,37,0.00,CLR,CLR,0.00,WeatherDisplay:10.34,2013-04-06 02:16:00,
2013-04-05 22:22:00,35.4,11.7,29.98,North,11,9.0,15.0,37,0.00,CLR,CLR,0.00,WeatherDisplay:10.34,2013-04-06 02:22:00,
2013-04-05 22:27:00,35.2,10.9,29.98,East,85,3.0,5.0,36,0.00,CLR,CLR,0.00,WeatherDisplay:10.34,2013-04-06 02:27:00,
2013-04-05 22:32:00,35.1,10.7,29.98,NE,39,3.0,5.0,36,0.00,CLR,CLR,0.00,WeatherDisplay:10.34,2013-04-06 02:32:00,
2013-04-05 22:37:00,35.1,10.7,29.98,North,11,0.0,0.0,36,0.00,CLR,CLR,0.00,WeatherDisplay:10.34,2013-04-06 02:37:00,
2013-04-05 22:42:00,34.9,10.6,29.98,North,5,5.0,12.0,36,0.00,CLR,CLR,0.00,WeatherDisplay:10.34,2013-04-06 02:42:00,
2013-04-05 22:47:00,34.7,9.8,29.98,West,277,3.0,5.0,35,0.00,CLR,CLR,0.00,WeatherDisplay:10.34,2013-04-06 02:47:00,
2013-04-05 22:52:00,34.7,9.8,29.98,WSW,257,4.0,8.0,35,0.00,CLR,CLR,0.00,WeatherDisplay:10.34,2013-04-06 02:52:00,
2013-04-05 22:57:00,34.5,9.6,29.98,NNW,339,5.0,10.0,35,0.00,CLR,CLR,0.00,WeatherDisplay:10.34,2013-04-06 02:57:00,
2013-04-05 23:02:00,34.5,9.6,30.01,ENE,71,6.0,12.0,35,0.00,CLR,CLR,0.00,WeatherDisplay:10.34,2013-04-06 03:02:00,
2013-04-05 23:07:00,34.3,9.5,30.01,NNW,347,6.0,13.0,35,0.00,CLR,CLR,0.00,WeatherDisplay:10.34,2013-04-06 03:07:00,
2013-04-05 23:12:00,34.3,9.5,30.01,NNE,16,4.0,8.0,35,0.00,CLR,CLR,0.00,WeatherDisplay:10.34,2013-04-06 03:12:00,
2013-04-05 23:17:00,34.3,9.5,30.01,NNE,16,0.0,5.0,35,0.00,CLR,CLR,0.00,WeatherDisplay:10.34,2013-04-06 03:17:00,
2013-04-05 23:22:00,33.8,9.6,30.01,North,10,0.0,5.0,36,0.00,CLR,CLR,0.00,WeatherDisplay:10.34,2013-04-06 03:22:00,
2013-04-05 23:27:00,33.6,8.8,30.01,NNE,28,0.0,2.0,35,0.00,CLR,CLR,0.00,WeatherDisplay:10.34,2013-04-06 03:27:00,
2013-04-05 23:33:00,33.6,8.8,30.01,North,6,0.0,3.0,35,0.00,CLR,CLR,0.00,WeatherDisplay:10.34,2013-04-06 03:33:00,
2013-04-05 23:38:00,33.4,8.7,30.01,North,351,4.0,10.0,35,0.00,CLR,CLR,0.00,WeatherDisplay:10.34,2013-04-06 03:38:00,
2013-04-05 23:44:00,33.3,8.5,30.01,ESE,106,4.0,7.0,35,0.00,CLR,CLR,0.00,WeatherDisplay:10.34,2013-04-06 03:44:00,
2013-04-05 23:49:00,33.1,8.4,30.01,NNW,347,4.0,9.0,35,0.00,CLR,CLR,0.00,WeatherDisplay:10.34,2013-04-06 03:49:00,
2013-04-05 23:55:00,32.9,8.2,30.01,North,5,3.0,7.0,35,0.00,CLR,CLR,0.00,WeatherDisplay:10.34,2013-04-06 03:55:00,